Voltar ao catálogo

ATLAS 5 CENTAUR DEB

LostHEO
NORAD 49370·DEBRIS·🇺🇸 United States

Lançado Oct 17, 2018 de Cape Canaveral Space Force Station

Loading…

Próximas Passagens (próximas 24 horas)

TLE

ObsoletoSource: Space-Track

Época: Jun 2, 2024, 20:18 UTC

1 49370U 18079FX  24154.84628976 -.00000111  00000-0  00000+0 0  9997
2 49370  13.3932  77.8560 4663616 222.5415  89.9218  1.85774280 18864

Acompanhe ATLAS 5 CENTAUR DEB em tempo real com AllMySat

Download on the App Store